^^
Saratoga-Weather Station Historical Data
Daily Summary for March 2, 2020 Units:  English    Metric   Both
Daily Weekly Monthly Yearly Custom
  High: Low: Average:
Temperature: 55.2 °F 29.7 °F 43.3 °F
Dew Point: 32.9 °F 24.4 °F 28.8 °F
Humidity: 83% 36% 59%
Wind Speed: 12.1mph 0mph 2.4mph
Wind Gust: 15mph - -
Wind- - WSW
Pressure: 30 in 29.9 in -
Precipitation: 0.01 in    
Historical Graphs
 
 
Tabular Data for March 2, 2020
Time Temperature Dew Point Pressure Wind Wind Speed Wind Gust Humidity Rainfall Rate (Hourly) solar
00:00 36.3 °F 25.3 °F 30 in Calm   1 mph 64% 0 in 0 W/m2
00:05 36.1 °F 25.5 °F 30 in West 2 mph 2 mph 65% 0 in 0 W/m2
00:10 36 °F 25.3 °F 30 in Calm     65% 0 in 0 W/m2
00:15 36 °F 25.3 °F 30 in Calm   1 mph 65% 0 in 0 W/m2
00:20 36 °F 25.3 °F 30 in Calm     65% 0 in 0 W/m2
00:25 36 °F 25.3 °F 30 in Calm     65% 0 in 0 W/m2
00:30 35.8 °F 24.8 °F 30 in Calm     64% 0 in 0 W/m2
00:35 35.8 °F 25.2 °F 30 in Calm     65% 0 in 0 W/m2
00:40 35.8 °F 25.2 °F 30 in NW 0.9 mph 1 mph 65% 0 in 0 W/m2
00:45 35.8 °F 25.2 °F 30 in Calm   1 mph 65% 0 in 0 W/m2
00:50 35.8 °F 25.2 °F 30 in Calm   1 mph 65% 0 in 0 W/m2
00:55 35.6 °F 25.3 °F 30 in West 2 mph 2 mph 66% 0 in 0 W/m2
01:00 35.4 °F 25.2 °F 30 in Calm     66% 0 in 0 W/m2
01:05 35.2 °F 25.3 °F 30 in Calm     67% 0 in 0 W/m2
01:10 35.2 °F 25.3 °F 30 in Calm     67% 0 in 0 W/m2
01:15 35.1 °F 25.2 °F 30 in Calm     67% 0 in 0 W/m2
01:20 34.9 °F 25.3 °F 30 in Calm     68% 0 in 0 W/m2
01:25 34.9 °F 25.7 °F 30 in Calm     69% 0 in 0 W/m2
01:30 34.9 °F 26.4 °F 30 in Calm   1 mph 71% 0 in 0 W/m2
01:35 35.1 °F 26.6 °F 30 in Calm     71% 0 in 0 W/m2
01:41 35.2 °F 26.4 °F 30 in West 0.9 mph 1 mph 70% 0 in 0 W/m2
01:46 35.4 °F 26.6 °F 30 in West 0.9 mph 2 mph 70% 0 in 0 W/m2
01:51 35.4 °F 26.2 °F 30 in Calm   1 mph 69% 0 in 0 W/m2
01:56 35.8 °F 26.6 °F 30 in Calm   1 mph 69% 0 in 0 W/m2
02:01 35.8 °F 26.6 °F 30 in Calm   1 mph 69% 0 in 0 W/m2
02:06 35.8 °F 26.6 °F 30 in Calm     69% 0 in 0 W/m2
02:11 35.8 °F 26.6 °F 30 in Calm   1 mph 69% 0 in 0 W/m2
02:16 35.6 °F 26.8 °F 30 in Calm   1 mph 70% 0 in 0 W/m2
02:21 35.4 °F 26.2 °F 30 in West 0.9 mph 1 mph 69% 0 in 0 W/m2
02:26 35.4 °F 26.6 °F 30 in Calm   2 mph 70% 0 in 0 W/m2
02:31 35.2 °F 26.4 °F 30 in Calm     70% 0 in 0 W/m2
02:36 35.2 °F 26.4 °F 30 in West 2 mph 2 mph 70% 0 in 0 W/m2
02:41 35.2 °F 26.8 °F 30 in Calm   1 mph 71% 0 in 0 W/m2
02:46 35.2 °F 26.4 °F 30 in Calm     70% 0 in 0 W/m2
02:51 35.4 °F 26.6 °F 30 in Calm   3 mph 70% 0 in 0 W/m2
02:56 35.4 °F 26.6 °F 30 in Calm     70% 0 in 0 W/m2
03:01 35.2 °F 26.4 °F 30 in SW 0.9 mph 1 mph 70% 0 in 0 W/m2
03:06 35.1 °F 26.6 °F 30 in Calm   1 mph 71% 0 in 0 W/m2
03:11 35.1 °F 26.6 °F 30 in Calm     71% 0 in 0 W/m2
03:16 34.9 °F 26.4 °F 30 in Calm     71% 0 in 0 W/m2
03:21 34.7 °F 26.2 °F 30 in Calm     71% 0 in 0 W/m2
03:26 34.5 °F 26.1 °F 30 in SW 0.9 mph 1 mph 71% 0 in 0 W/m2
03:31 34.5 °F 26.1 °F 30 in Calm   1 mph 71% 0 in 0 W/m2
03:36 34.3 °F 26.2 °F 30 in Calm   1 mph 72% 0 in 0 W/m2
03:41 34.3 °F 26.2 °F 30 in Calm   1 mph 72% 0 in 0 W/m2
03:46 34.3 °F 26.2 °F 30 in SW 0.9 mph 1 mph 72% 0 in 0 W/m2
03:51 34.2 °F 26.1 °F 30 in Calm   1 mph 72% 0 in 0 W/m2
03:56 34.2 °F 26.1 °F 30 in Calm   1 mph 72% 0 in 0 W/m2
04:01 34.2 °F 26.4 °F 30 in Calm     73% 0 in 0 W/m2
04:06 34.2 °F 26.4 °F 30 in Calm     73% 0 in 0 W/m2
04:11 34 °F 26.2 °F 30 in Calm     73% 0 in 0 W/m2
04:16 33.8 °F 26.1 °F 30 in Calm   1 mph 73% 0 in 0 W/m2
04:21 33.6 °F 25.9 °F 30 in Calm     73% 0 in 0 W/m2
04:26 33.4 °F 26.1 °F 30 in Calm     74% 0 in 0 W/m2
04:31 33.3 °F 25.9 °F 30 in Calm     74% 0 in 0 W/m2
04:36 33.1 °F 26.1 °F 30 in Calm     75% 0 in 0 W/m2
04:41 32.7 °F 25.7 °F 30 in SW 0.9 mph 1 mph 75% 0 in 0 W/m2
04:46 32.7 °F 25.7 °F 30 in Calm     75% 0 in 0 W/m2
04:52 32.7 °F 25.7 °F 30 in Calm   1 mph 75% 0 in 0 W/m2
04:57 32.5 °F 25.5 °F 30 in Calm     75% 0 in 0 W/m2
05:02 32.4 °F 25.3 °F 30 in Calm   1 mph 75% 0 in 0 W/m2
05:07 32.2 °F 25.2 °F 30 in Calm     75% 0 in 0 W/m2
05:12 32 °F 25.3 °F 30 in Calm     76% 0 in 0 W/m2
05:17 31.8 °F 25.2 °F 30 in Calm     76% 0 in 0 W/m2
05:22 31.6 °F 25 °F 30 in Calm     76% 0 in 0 W/m2
05:27 31.6 °F 25.3 °F 30 in Calm     77% 0 in 0 W/m2
05:32 31.5 °F 25.2 °F 30 in Calm     77% 0 in 0 W/m2
05:37 31.5 °F 25.2 °F 30 in Calm     77% 0 in 0 W/m2
05:42 31.3 °F 25.2 °F 30 in Calm     78% 0 in 0 W/m2
05:47 31.3 °F 25.2 °F 30 in Calm     78% 0 in 0 W/m2
05:52 31.1 °F 25 °F 30 in Calm     78% 0 in 0 W/m2
05:57 30.9 °F 24.8 °F 30 in Calm   1 mph 78% 0 in 0 W/m2
06:02 30.9 °F 24.8 °F 30 in Calm     78% 0 in 0 W/m2
06:07 30.9 °F 24.8 °F 30 in Calm   1 mph 78% 0 in 0 W/m2
06:12 30.7 °F 24.6 °F 30 in Calm     78% 0 in 0 W/m2
06:17 30.7 °F 25 °F 30 in Calm     79% 0 in 0 W/m2
06:22 30.6 °F 24.8 °F 30 in Calm     79% 0 in 0 W/m2
06:27 30.6 °F 24.8 °F 30 in Calm     79% 0 in 0 W/m2
06:32 30.4 °F 24.6 °F 30 in Calm     79% 0 in 0 W/m2
06:37 30.2 °F 24.4 °F 30 in Calm     79% 0 in 0 W/m2
06:42 30.2 °F 24.8 °F 30 in Calm     80% 0 in 0 W/m2
06:47 30 °F 24.6 °F 30 in Calm     80% 0 in 0 W/m2
06:52 30 °F 24.6 °F 30 in Calm     80% 0 in 0 W/m2
06:57 29.8 °F 24.8 °F 30 in Calm     81% 0 in 0 W/m2
07:02 29.8 °F 24.8 °F 30 in Calm     81% 0 in 0 W/m2
07:07 29.8 °F 24.8 °F 30 in Calm     81% 0 in 0 W/m2
07:13 29.8 °F 24.8 °F 30 in Calm     81% 0 in 5 W/m2
07:18 29.8 °F 24.8 °F 30 in Calm     81% 0 in 7 W/m2
07:23 29.7 °F 24.6 °F 30 in Calm     81% 0 in 11 W/m2
07:28 29.7 °F 24.8 °F 30 in Calm     82% 0 in 12 W/m2
07:33 29.7 °F 24.8 °F 30 in Calm     82% 0 in 16 W/m2
07:38 29.7 °F 24.8 °F 30 in Calm     82% 0 in 18 W/m2
07:43 29.7 °F 24.8 °F 30 in Calm     82% 0 in 19 W/m2
07:48 29.7 °F 24.8 °F 30 in Calm     82% 0 in 23 W/m2
07:53 29.7 °F 24.8 °F 30 in Calm     82% 0 in 23 W/m2
07:58 29.7 °F 24.8 °F 30 in Calm     82% 0 in 26 W/m2
08:03 29.8 °F 25.3 °F 30 in Calm     83% 0 in 28 W/m2
08:08 30 °F 25.2 °F 30 in Calm     82% 0 in 30 W/m2
08:13 30.2 °F 25.3 °F 30 in Calm     82% 0 in 32 W/m2
08:18 30.4 °F 25.5 °F 30 in Calm     82% 0 in 114 W/m2
08:23 30.4 °F 25.5 °F 30 in Calm     82% 0 in 141 W/m2
08:28 30.6 °F 25.7 °F 30 in Calm     82% 0 in 153 W/m2
08:33 30.9 °F 26.1 °F 30 in Calm     82% 0 in 169 W/m2
08:38 31.5 °F 26.6 °F 30 in Calm   1 mph 82% 0 in 181 W/m2
08:43 32.2 °F 27 °F 30 in SSW 0.9 mph 1 mph 81% 0 in 193 W/m2
08:48 33.3 °F 27.7 °F 30 in Calm     80% 0 in 209 W/m2
08:53 34.3 °F 28.2 °F 30 in Calm     78% 0 in 218 W/m2
08:58 35.1 °F 28.2 °F 30 in Calm     76% 0 in 230 W/m2
09:03 35.8 °F 28 °F 30 in ESE 0.9 mph 2 mph 73% 0 in 244 W/m2
09:08 36.7 °F 28.6 °F 30 in ESE 2 mph 2 mph 72% 0 in 258 W/m2
09:14 37 °F 28.2 °F 30 in Calm   1 mph 70% 0 in 269 W/m2
09:19 37.6 °F 28.4 °F 30 in Calm     69% 0 in 271 W/m2
09:24 37.9 °F 28 °F 30 in Calm   1 mph 67% 0 in 292 W/m2
09:29 38.3 °F 28.2 °F 30 in Calm     67% 0 in 151 W/m2
09:34 38.7 °F 28.2 °F 30 in WNW 0.9 mph 2 mph 66% 0 in 51 W/m2
09:39 39 °F 28.6 °F 30 in Calm   1 mph 66% 0 in 327 W/m2
09:44 39.7 °F 28.9 °F 30 in NW 2 mph 2 mph 65% 0 in 341 W/m2
09:49 40.3 °F 29.1 °F 30 in Calm     64% 0 in 355 W/m2
09:54 41 °F 29.3 °F 30 in Calm     63% 0 in 371 W/m2
09:59 41.5 °F 28.8 °F 30 in NNW 2 mph 2 mph 60% 0 in 381 W/m2
10:04 42.1 °F 29.7 °F 30 in NNE 0.9 mph 2 mph 61% 0 in 394 W/m2
10:09 43 °F 30.4 °F 30 in ESE 2.9 mph 3 mph 61% 0 in 404 W/m2
10:14 43.5 °F 29.7 °F 30 in ESE 2 mph 2 mph 58% 0 in 417 W/m2
10:19 44.2 °F 30.4 °F 30 in ESE 0.9 mph 2 mph 58% 0 in 427 W/m2
10:24 44.8 °F 30.6 °F 30 in East 2.9 mph 3 mph 57% 0 in 439 W/m2
10:29 45.3 °F 30.6 °F 30 in ESE 2 mph 2 mph 56% 0 in 450 W/m2
10:34 46 °F 30.4 °F 30 in East 0.9 mph 3 mph 54% 0 in 461 W/m2
10:39 45.9 °F 30.2 °F 30 in East 2.9 mph 3 mph 54% 0 in 469 W/m2
10:45 46.2 °F 30.6 °F 30 in ENE 2 mph 3 mph 54% 0 in 478 W/m2
10:50 46.6 °F 29.8 °F 29.9 in ENE 0.9 mph 3 mph 52% 0 in 489 W/m2
10:55 46.9 °F 30.2 °F 29.9 in South 2 mph 3 mph 52% 0 in 503 W/m2
11:00 47.7 °F 30.9 °F 29.9 in ENE 2 mph 4 mph 52% 0 in 513 W/m2
11:05 48 °F 30.2 °F 29.9 in SSE 2.9 mph 5 mph 50% 0 in 522 W/m2
11:10 48.9 °F 30 °F 29.9 in Calm   3 mph 48% 0 in 531 W/m2
11:15 49.5 °F 30.6 °F 29.9 in NE 2.9 mph 5 mph 48% 0 in 540 W/m2
11:20 49.3 °F 30.4 °F 29.9 in ENE 2 mph 6 mph 48% 0 in 548 W/m2
11:25 48.9 °F 30 °F 29.9 in NNE 0.9 mph 2 mph 48% 0 in 554 W/m2
11:30 48.7 °F 29.5 °F 29.9 in ESE 2 mph 6 mph 47% 0 in 563 W/m2
11:35 49.3 °F 30.4 °F 29.9 in ENE 0.9 mph 4 mph 48% 0 in 571 W/m2
11:40 49.8 °F 30.4 °F 29.9 in ESE 4 mph 6 mph 47% 0 in 578 W/m2
11:45 50.5 °F 30 °F 29.9 in East 0.9 mph 3 mph 45% 0 in 587 W/m2
11:50 50.9 °F 30.4 °F 29.9 in ESE 2.9 mph 3 mph 45% 0 in 592 W/m2
11:55 51.4 °F 30.7 °F 29.9 in ENE 4 mph 6 mph 45% 0 in 601 W/m2
12:00 51.4 °F 29.7 °F 29.9 in SE 2 mph 7 mph 43% 0 in 610 W/m2
12:05 51.4 °F 29.7 °F 29.9 in ENE 2 mph 4 mph 43% 0 in 615 W/m2
12:10 51.6 °F 29.8 °F 29.9 in NW 0.9 mph 2 mph 43% 0 in 621 W/m2
12:15 52.3 °F 29.8 °F 29.9 in Calm   3 mph 42% 0 in 628 W/m2
12:20 52.9 °F 29.8 °F 29.9 in NNE 0.9 mph 2 mph 41% 0 in 631 W/m2
12:25 52.7 °F 29.7 °F 29.9 in ENE 0.9 mph 1 mph 41% 0 in 636 W/m2
12:30 52.5 °F 26.2 °F 29.9 in North 2.9 mph 4 mph 36% 0 in 643 W/m2
12:35 52.5 °F 26.2 °F 29.9 in WSW 4 mph 8 mph 36% 0 in 647 W/m2
12:40 52.3 °F 26.8 °F 29.9 in West 6.9 mph 7 mph 37% 0 in 650 W/m2
12:45 52.5 °F 27 °F 29.9 in NW 4.9 mph 7 mph 37% 0 in 650 W/m2
12:50 52.3 °F 27.5 °F 29.9 in WNW 2.9 mph 7 mph 38% 0 in 652 W/m2
12:55 52.5 °F 28.2 °F 29.9 in WNW 8.1 mph 8 mph 39% 0 in 654 W/m2
13:00 52.5 °F 27 °F 29.9 in WNW 2 mph 2 mph 37% 0 in 657 W/m2
13:05 52.3 °F 28 °F 29.9 in WSW 6 mph 10 mph 39% 0 in 663 W/m2
13:10 52.5 °F 27.7 °F 29.9 in WNW 2.9 mph 3 mph 38% 0 in 664 W/m2
13:15 52.9 °F 28 °F 29.9 in West 2 mph 6 mph 38% 0 in 668 W/m2
13:20 52.9 °F 28.6 °F 29.9 in NW 2 mph 4 mph 39% 0 in 666 W/m2
13:25 53.1 °F 28.8 °F 29.9 in WSW 2 mph 4 mph 39% 0 in 670 W/m2
13:30 53.1 °F 28 °F 29.9 in SW 2.9 mph 5 mph 38% 0 in 671 W/m2
13:35 53.2 °F 29.5 °F 29.9 in SW 0.9 mph 1 mph 40% 0 in 671 W/m2
13:40 54 °F 30.2 °F 29.9 in WNW 2.9 mph 8 mph 40% 0 in 666 W/m2
13:45 54.1 °F 29.7 °F 29.9 in NNW 2.9 mph 6 mph 39% 0 in 663 W/m2
13:50 54 °F 30.2 °F 29.9 in ESE 4 mph 4 mph 40% 0 in 666 W/m2
13:56 54 °F 28.2 °F 29.9 in WNW 2.9 mph 8 mph 37% 0 in 659 W/m2
14:01 54 °F 28.9 °F 29.9 in WNW 4 mph 9 mph 38% 0 in 663 W/m2
14:06 53.8 °F 28 °F 29.9 in WNW 2 mph 9 mph 37% 0 in 661 W/m2
14:11 54 °F 28.9 °F 29.9 in NW 4.9 mph 11 mph 38% 0 in 656 W/m2
14:16 53.8 °F 28 °F 29.9 in West 4 mph 10 mph 37% 0 in 645 W/m2
14:21 53.8 °F 28.8 °F 29.9 in NW 4 mph 7 mph 38% 0 in 654 W/m2
14:26 54 °F 28.9 °F 29.9 in NNW 2 mph 6 mph 38% 0 in 647 W/m2
14:31 54.3 °F 29.3 °F 29.9 in NW 4.9 mph 8 mph 38% 0 in 645 W/m2
14:36 54.5 °F 28.8 °F 29.9 in WNW 4.9 mph 8 mph 37% 0 in 640 W/m2
14:41 54.3 °F 29.3 °F 29.9 in WNW 2 mph 4 mph 38% 0 in 635 W/m2
14:46 54.5 °F 29.5 °F 29.9 in NNW 2.9 mph 4 mph 38% 0.01 in 631 W/m2
14:51 54.5 °F 28.8 °F 29.9 in NNW 4 mph 8 mph 37% 0.01 in 622 W/m2
14:56 54.3 °F 29.3 °F 29.9 in WNW 4 mph 7 mph 38% 0.01 in 624 W/m2
15:01 54.3 °F 28.6 °F 29.9 in West 4 mph 8 mph 37% 0.01 in 617 W/m2
15:06 54.7 °F 30.9 °F 29.9 in WSW 4 mph 5 mph 40% 0.01 in 613 W/m2
15:11 55.2 °F 30.7 °F 29.9 in WSW 4.9 mph 5 mph 39% 0.01 in 608 W/m2
15:16 55.2 °F 29.5 °F 29.9 in WNW 6 mph 11 mph 37% 0.01 in 601 W/m2
15:21 54.9 °F 29.1 °F 29.9 in NW 4.9 mph 7 mph 37% 0.01 in 601 W/m2
15:26 54.9 °F 30.4 °F 29.9 in West 2 mph 4 mph 39% 0.01 in 580 W/m2
15:31 55.2 °F 29.5 °F 29.9 in WNW 2.9 mph 7 mph 37% 0.01 in 575 W/m2
15:36 55.2 °F 29.5 °F 29.9 in NW 4.9 mph 10 mph 37% 0.01 in 564 W/m2
15:41 54.9 °F 29.1 °F 29.9 in West 6.9 mph 13 mph 37% 0.01 in 557 W/m2
15:46 54.7 °F 29.5 °F 29.9 in SW 6 mph 13 mph 38% 0 in 552 W/m2
15:51 54.7 °F 29.5 °F 29.9 in West 6.9 mph 11 mph 38% 0 in 545 W/m2
15:56 54.9 °F 30.4 °F 29.9 in West 4 mph 13 mph 39% 0 in 533 W/m2
16:01 55 °F 30.6 °F 29.9 in NW 4 mph 4 mph 39% 0 in 522 W/m2
16:06 55.2 °F 30.7 °F 29.9 in West 6 mph 13 mph 39% 0 in 508 W/m2
16:11 55 °F 30.6 °F 29.9 in NW 0.9 mph 4 mph 39% 0 in 496 W/m2
16:16 55 °F 30.6 °F 29.9 in NW 8.1 mph 10 mph 39% 0 in 468 W/m2
16:21 55 °F 31.1 °F 29.9 in West 6 mph 9 mph 40% 0 in 482 W/m2
16:26 55 °F 30.6 °F 29.9 in WNW 6 mph 10 mph 39% 0 in 468 W/m2
16:31 55 °F 31.1 °F 29.9 in WNW 4 mph 9 mph 40% 0 in 457 W/m2
16:36 55 °F 31.1 °F 29.9 in West 4 mph 11 mph 40% 0 in 434 W/m2
16:41 54.9 °F 30.4 °F 29.9 in NW 2.9 mph 11 mph 39% 0 in 441 W/m2
16:46 54.9 °F 30.4 °F 29.9 in WSW 6.9 mph 12 mph 39% 0 in 429 W/m2
16:51 54.9 °F 30.4 °F 29.9 in NNW 4.9 mph 6 mph 39% 0 in 422 W/m2
16:56 54.9 °F 30.9 °F 29.9 in West 12.1 mph 15 mph 40% 0 in 404 W/m2
17:01 54.7 °F 30.9 °F 29.9 in West 6 mph 6 mph 40% 0 in 394 W/m2
17:06 54.5 °F 31.8 °F 29.9 in NW 4 mph 15 mph 42% 0 in 387 W/m2
17:11 54.7 °F 32 °F 29.9 in SW 6 mph 10 mph 42% 0 in 378 W/m2
17:16 54.7 °F 32 °F 29.9 in West 4 mph 7 mph 42% 0 in 362 W/m2
17:21 54.7 °F 32 °F 29.9 in WNW 0.9 mph 9 mph 42% 0 in 360 W/m2
17:26 54.9 °F 30.9 °F 29.9 in WSW 4.9 mph 9 mph 40% 0 in 339 W/m2
17:31 54.7 °F 30.9 °F 29.9 in West 6.9 mph 9 mph 40% 0 in 338 W/m2
17:36 54.9 °F 30.9 °F 29.9 in NNW 4 mph 7 mph 40% 0 in 322 W/m2
17:41 55 °F 31.8 °F 29.9 in NW 8.1 mph 9 mph 41% 0 in 309 W/m2
17:46 54.9 °F 30.9 °F 29.9 in NW 4.9 mph 11 mph 40% 0 in 297 W/m2
17:52 54.3 °F 31.6 °F 29.9 in WNW 10.1 mph 12 mph 42% 0 in 283 W/m2
17:57 54 °F 32 °F 29.9 in West 8.1 mph 12 mph 43% 0 in 272 W/m2
18:02 54 °F 32 °F 29.9 in WSW 2.9 mph 6 mph 43% 0 in 250 W/m2
18:07 54 °F 32 °F 29.9 in NW 8.1 mph 12 mph 43% 0 in 241 W/m2
18:12 53.8 °F 32.4 °F 29.9 in NW 2.9 mph 9 mph 44% 0 in 223 W/m2
18:17 53.8 °F 32.4 °F 29.9 in NW 2 mph 5 mph 44% 0 in 216 W/m2
18:22 54 °F 32.5 °F 29.9 in West 2.9 mph 7 mph 44% 0 in 204 W/m2
18:27 53.8 °F 31.8 °F 29.9 in WSW 4 mph 9 mph 43% 0 in 192 W/m2
18:32 53.8 °F 32.4 °F 29.9 in WSW 8.1 mph 9 mph 44% 0 in 178 W/m2
18:37 53.4 °F 32.5 °F 29.9 in WNW 4 mph 4 mph 45% 0 in 167 W/m2
18:42 53.4 °F 32 °F 29.9 in WSW 8.9 mph 11 mph 44% 0 in 153 W/m2
18:47 53.2 °F 31.8 °F 29.9 in West 4 mph 8 mph 44% 0 in 135 W/m2
18:52 53.1 °F 31.6 °F 29.9 in WNW 4 mph 11 mph 44% 0 in 121 W/m2
18:57 52.9 °F 32.2 °F 29.9 in West 4 mph 4 mph 45% 0 in 107 W/m2
19:02 52.9 °F 32.2 °F 29.9 in WNW 11 mph 11 mph 45% 0 in 95 W/m2
19:07 52.3 °F 31.6 °F 29.9 in West 8.9 mph 13 mph 45% 0 in 83 W/m2
19:12 52 °F 31.8 °F 29.9 in West 6 mph 9 mph 46% 0 in 69 W/m2
19:17 51.6 °F 31.5 °F 29.9 in West 8.1 mph 13 mph 46% 0 in 54 W/m2
19:22 51.4 °F 31.3 °F 29.9 in West 2.9 mph 6 mph 46% 0 in 37 W/m2
19:27 51.1 °F 31.1 °F 29.9 in West 6.9 mph 11 mph 46% 0 in 25 W/m2
19:32 50.5 °F 31.1 °F 29.9 in West 11 mph 11 mph 47% 0 in 21 W/m2
19:37 50.4 °F 31.5 °F 29.9 in West 2.9 mph 7 mph 48% 0 in 19 W/m2
19:42 50.2 °F 31.3 °F 29.9 in West 2 mph 7 mph 48% 0 in 18 W/m2
19:47 49.8 °F 30.9 °F 29.9 in WNW 6 mph 9 mph 48% 0 in 14 W/m2
19:52 49.6 °F 30.7 °F 29.9 in West 2.9 mph 6 mph 48% 0 in 12 W/m2
19:57 49.5 °F 31.1 °F 29.9 in WSW 4.9 mph 9 mph 49% 0 in 11 W/m2
20:02 49.1 °F 30.7 °F 29.9 in WSW 8.1 mph 11 mph 49% 0 in 9 W/m2
20:08 48.9 °F 30.6 °F 29.9 in WSW 4.9 mph 10 mph 49% 0 in 5 W/m2
20:13 48.7 °F 30.9 °F 29.9 in WNW 2 mph 11 mph 50% 0 in 0 W/m2
20:18 48.6 °F 30.7 °F 29.9 in WNW 2.9 mph 8 mph 50% 0 in 0 W/m2
20:23 48.4 °F 31.1 °F 29.9 in West 4 mph 10 mph 51% 0 in 0 W/m2
20:28 48.2 °F 31.5 °F 29.9 in WNW 2.9 mph 7 mph 52% 0 in 0 W/m2
20:33 48 °F 31.6 °F 29.9 in West 8.1 mph 9 mph 53% 0 in 0 W/m2
20:38 47.7 °F 31.8 °F 29.9 in WSW 6.9 mph 10 mph 54% 0 in 0 W/m2
20:43 47.5 °F 32.2 °F 29.9 in West 10.1 mph 10 mph 55% 0 in 0 W/m2
20:48 47.1 °F 32.2 °F 29.9 in West 2 mph 9 mph 56% 0 in 0 W/m2
20:53 46.9 °F 32.5 °F 29.9 in WSW 4.9 mph 12 mph 57% 0 in 0 W/m2
20:58 46.8 °F 32.4 °F 29.9 in WNW 8.9 mph 11 mph 57% 0 in 0 W/m2
21:03 46.6 °F 32.5 °F 29.9 in West 8.1 mph 11 mph 58% 0 in 0 W/m2
21:08 46.2 °F 32.7 °F 29.9 in West 6.9 mph 9 mph 59% 0 in 0 W/m2
21:13 46 °F 32.5 °F 29.9 in West 6 mph 7 mph 59% 0 in 0 W/m2
21:18 45.9 °F 32.7 °F 29.9 in West 4 mph 9 mph 60% 0 in 0 W/m2
21:23 45.7 °F 32.5 °F 29.9 in West 4 mph 11 mph 60% 0 in 0 W/m2
21:28 45.5 °F 32.9 °F 29.9 in WNW 4 mph 8 mph 61% 0 in 0 W/m2
21:33 45.3 °F 32.7 °F 29.9 in WNW 4 mph 12 mph 61% 0 in 0 W/m2
21:38 45.1 °F 32.5 °F 29.9 in West 6.9 mph 9 mph 61% 0 in 0 W/m2
21:43 45.1 °F 32.9 °F 29.9 in West 4 mph 11 mph 62% 0 in 0 W/m2
21:48 45 °F 32.7 °F 29.9 in West 11 mph 12 mph 62% 0 in 0 W/m2
21:53 44.8 °F 32.5 °F 29.9 in WNW 2 mph 11 mph 62% 0 in 0 W/m2
21:58 44.6 °F 32.7 °F 29.9 in WSW 2 mph 12 mph 63% 0 in 0 W/m2
22:03 44.2 °F 32.4 °F 29.9 in WSW 4 mph 8 mph 63% 0 in 0 W/m2
22:09 44.1 °F 32.7 °F 29.9 in WSW 6 mph 12 mph 64% 0 in 0 W/m2
22:14 44.1 °F 32.7 °F 29.9 in WNW 4 mph 9 mph 64% 0 in 0 W/m2
22:19 43.7 °F 32.7 °F 29.9 in West 6 mph 7 mph 65% 0 in 0 W/m2
22:24 43.5 °F 32.5 °F 29.9 in WSW 2 mph 7 mph 65% 0 in 0 W/m2
22:29 43.3 °F 32.7 °F 29.9 in WNW 4 mph 8 mph 66% 0 in 0 W/m2
22:34 43.3 °F 32.7 °F 29.9 in West 6 mph 9 mph 66% 0 in 0 W/m2
22:39 43.2 °F 32.5 °F 29.9 in WNW 2.9 mph 6 mph 66% 0 in 0 W/m2
22:44 43 °F 32.7 °F 29.9 in WNW 2.9 mph 7 mph 67% 0 in 0 W/m2
22:49 43 °F 32.7 °F 29.9 in WNW 4.9 mph 8 mph 67% 0 in 0 W/m2
22:54 43 °F 32.7 °F 29.9 in WSW 2.9 mph 8 mph 67% 0 in 0 W/m2
22:59 42.6 °F 32.4 °F 29.9 in West 2.9 mph 8 mph 67% 0 in 0 W/m2
23:04 42.6 °F 32.4 °F 29.9 in West 2.9 mph 9 mph 67% 0 in 0 W/m2
23:09 42.6 °F 32.4 °F 29.9 in WSW 2.9 mph 6 mph 67% 0 in 0 W/m2
23:14 42.4 °F 32.7 °F 29.9 in West 2 mph 8 mph 68% 0 in 0 W/m2
23:19 42.3 °F 32.5 °F 29.9 in WNW 0.9 mph 5 mph 68% 0 in 0 W/m2
23:24 42.3 °F 32.5 °F 29.9 in West 2 mph 7 mph 68% 0 in 0 W/m2
23:29 42.1 °F 32.4 °F 29.9 in NW 2 mph 4 mph 68% 0 in 0 W/m2
23:34 41.9 °F 32.5 °F 29.9 in West 2.9 mph 3 mph 69% 0 in 0 W/m2
23:39 41.7 °F 32.4 °F 29.9 in West 0.9 mph 4 mph 69% 0 in 0 W/m2
23:44 41.5 °F 32.2 °F 29.9 in Calm   2 mph 69% 0 in 0 W/m2
23:49 41.4 °F 32 °F 29.9 in Calm   1 mph 69% 0 in 0 W/m2
23:54 41 °F 32 °F 29.9 in West 0.9 mph 2 mph 70% 0 in 0 W/m2
23:59 40.8 °F 31.8 °F 29.9 in West 0.9 mph 2 mph 70% 0 in 0 W/m2
Juneau County Weather
Compliments of Weather Underground - 2 mb